Brooksville, FL

2:58 PM EDT on June 25, 2017 (GMT -0400)
Hernando County

Weather History for KBKV - January, 2013

Change the Weather History Date:

Monday, January 28, 2013

  Actual Average Record
Temperature  
Mean Temperature 70 °F -  
Max Temperature 81 °F 67 °F 82 °F (2002)
Min Temperature 60 °F 44 °F 28 °F (2003)
Cooling Degree Days 6    
Growing Degree Days 20 (Base 50)    
Moisture  
Dew Point 61 °F    
Average Humidity 76    
Maximum Humidity 97    
Minimum Humidity 44    
Precipitation  
Precipitation 0.00 in - - ()
Sea Level Pressure  
Sea Level Pressure 30.29 in    
Wind  
Wind Speed 7 mph (East)    
Max Wind Speed 15 mph    
Max Gust Speed 20 mph    
Visibility 10 miles    
Events      
Averages and records for this station are not official NWS values.
T = Trace of Precipitation, MM = Missing Value Source: NWS Daily Summary

Daily Weather History Graph

Daily Weather History Graph

Search for Another Location

Airport or City:

Trip Planner

Search our weather history database for the weather conditions in past years. The results will help you decide how hot, cold, wet, or windy it might be!

Date:

Astronomy

Jan. 28, 2013 Rise Set
Actual Time 7:19 AM EST 6:06 PM EST
Civil Twilight 6:54 AM EST 6:31 PM EST
Nautical Twilight 6:26 AM EST 6:59 PM EST
Astronomical Twilight 5:58 AM EST 7:27 PM EST
Moon 7:46 PM EST (1/28) 7:56 AM EST (1/28)
Length of Visible Light 11h 36m
Length of Day
10h 46m
Full, 98% of the Moon is Illuminated
Jan 28
Full
Feb 3
Last Quarter
Feb 10
New
Feb 17
First Quarter
Feb 25
Full

Hourly Weather History & Observations

Time (EST) Temp. Heat Index Dew Point Humidity Pressure Visibility Wind Dir Wind Speed Gust Speed Precip Events Conditions
12:53 AM 62.1 °F - 60.1 °F 93% 30.31 in 10.0 mi ENE 8.1 mph - N/A   Clear
1:53 AM 61.0 °F - 60.1 °F 97% 30.31 in 10.0 mi ENE 5.8 mph - N/A   Clear
2:53 AM 60.1 °F - 59.0 °F 96% 30.30 in 9.0 mi ENE 4.6 mph - N/A   Partly Cloudy
3:53 AM 62.1 °F - 60.1 °F 93% 30.31 in 10.0 mi ENE 5.8 mph - N/A   Mostly Cloudy
4:53 AM 61.0 °F - 60.1 °F 97% 30.30 in 10.0 mi ENE 5.8 mph - N/A   Partly Cloudy
5:53 AM 61.0 °F - 59.0 °F 93% 30.31 in 9.0 mi ENE 4.6 mph - N/A   Mostly Cloudy
6:53 AM 61.0 °F - 60.1 °F 97% 30.32 in 10.0 mi ENE 6.9 mph - N/A   Mostly Cloudy
7:53 AM 63.0 °F - 61.0 °F 93% 30.32 in 10.0 mi East 6.9 mph - N/A   Mostly Cloudy
8:53 AM 66.9 °F - 63.0 °F 87% 30.34 in 10.0 mi ESE 5.8 mph - N/A   Partly Cloudy
9:53 AM 69.1 °F - 63.0 °F 81% 30.35 in 10.0 mi ESE 8.1 mph - N/A   Clear
10:53 AM 72.0 °F - 63.0 °F 73% 30.35 in 10.0 mi ESE 9.2 mph - N/A   Partly Cloudy
11:53 AM 75.9 °F - 63.0 °F 64% 30.34 in 10.0 mi East 8.1 mph - N/A   Partly Cloudy
12:53 PM 81.0 °F 81.6 °F 60.1 °F 49% 30.31 in 10.0 mi SSE 15.0 mph 19.6 mph N/A   Mostly Cloudy
1:53 PM 79.0 °F - 59.0 °F 50% 30.28 in 10.0 mi Variable 5.8 mph - N/A   Overcast
2:53 PM 81.0 °F 81.0 °F 57.0 °F 44% 30.25 in 10.0 mi SE 11.5 mph - N/A   Mostly Cloudy
3:53 PM 80.1 °F 80.6 °F 57.9 °F 47% 30.24 in 10.0 mi ESE 5.8 mph - N/A   Overcast
4:53 PM 78.1 °F - 57.9 °F 50% 30.24 in 10.0 mi ESE 8.1 mph - N/A   Mostly Cloudy
5:53 PM 75.9 °F - 59.0 °F 56% 30.25 in 10.0 mi East 3.5 mph - N/A   Mostly Cloudy
6:53 PM 72.0 °F - 60.1 °F 66% 30.26 in 10.0 mi East 5.8 mph - N/A   Partly Cloudy
7:53 PM 72.0 °F - 62.1 °F 71% 30.27 in 10.0 mi East 6.9 mph - N/A   Clear
8:53 PM 70.0 °F - 63.0 °F 78% 30.28 in 10.0 mi East 5.8 mph - N/A   Mostly Cloudy
9:53 PM 70.0 °F - 63.0 °F 78% 30.28 in 10.0 mi ESE 6.9 mph - N/A   Overcast
10:53 PM 68.0 °F - 62.1 °F 81% 30.28 in 10.0 mi East 5.8 mph - N/A   Clear
11:53 PM 66.9 °F - 63.0 °F 87% 30.27 in 10.0 mi ESE 5.8 mph - N/A   Clear